QPF
0.03 0.00 0.00 0.00 0.00 0.00 0.00 0.00 0.00 0.00 0.00 0.00 0.00 0.00 0.00 0.00 0.00 0.00 0.00 0.00 0.00 0.00 0.00 0.00 0.00 0.01 0.01 0.02 0.02 0.02 0.02 0.01 0.01 0.01 0.00 0.00 0.00 0.00 0.00 0.00 0.00 0.00 0.00
0.01 0.00 0.00 0.00 0.00 0.00 0.00 0.00 0.00 0.00 0.00 0.00 0.00 0.00 0.00 0.00 0.00 0.00 0.00 0.00 0.00 0.00 0.00 0.00 0.00 0.01 0.01 0.01 0.02 0.01 0.01 0.01 0.02 0.01 0.00 0.00 0.00 0.00 0.00 0.00 0.00 0.00 0.00
0.01 0.00 0.00 0.00 0.00 0.00 0.00 0.00 0.00 0.00 0.00 0.00 0.00 0.00 0.00 0.00 0.00 0.00 0.00 0.00 0.00 0.00 0.00 0.00 0.00 0.01 0.01 0.01 0.01 0.01 0.01 0.01 0.01 0.01 0.01 0.00 0.00 0.00 0.00 0.00 0.00 0.00 0.00
0.01 0.00 0.00 0.00 0.00 0.00 0.00 0.00 0.00 0.00 0.00 0.00 0.00 0.00 0.00 0.00 0.00 0.00 0.00 0.00 0.00 0.00 0.00 0.00 0.00 0.00 0.00 0.00 0.01 0.01 0.01 0.01 0.01 0.02 0.03 0.03 0.01 0.01 0.00 0.00 0.00 0.00 0.00
0.01 0.00 0.00 0.00 0.00 0.00 0.00 0.00 0.00 0.00 0.00 0.00 0.00 0.00 0.00 0.00 0.00 0.00 0.00 0.00 0.00 0.00 0.00 0.00 0.00 0.00 0.00 0.00 0.00 0.00 0.01 0.01 0.03 0.07 0.10 0.07 0.03 0.02 0.01 0.00 0.00 0.00 0.00
0.01 0.00 0.00 0.00 0.00 0.00 0.00 0.00 0.00 0.00 0.00 0.00 0.00 0.00 0.00 0.00 0.00 0.00 0.00 0.00 0.00 0.00 0.00 0.00 0.00 0.00 0.00 0.00 0.00 0.00 0.00 0.01 0.03 0.07 0.10 0.06 0.04 0.03 0.01 0.00 0.00 0.00 0.00
0.01 0.00 0.00 0.00 0.00 0.00 0.00 0.00 0.00 0.00 0.00 0.00 0.00 0.00 0.00 0.00 0.00 0.00 0.00 0.00 0.00 0.00 0.00 0.00 0.00 0.00 0.00 0.00 0.00 0.00 0.00 0.01 0.02 0.06 0.08 0.07 0.06 0.05 0.02 0.01 0.00 0.00 0.00
0.01 0.01 0.01 0.01 0.00 0.00 0.00 0.00 0.00 0.00 0.00 0.00 0.00 0.00 0.00 0.00 0.00 0.00 0.00 0.00 0.00 0.00 0.00 0.00 0.00 0.00 0.00 0.00 0.00 0.00 0.00 0.01 0.02 0.06 0.08 0.08 0.07 0.06 0.03 0.02 0.01 0.01 0.01
0.04 0.06 0.04 0.02 0.01 0.01 0.00 0.00 0.00 0.00 0.00 0.00 0.00 0.00 0.00 0.00 0.00 0.00 0.00 0.00 0.00 0.00 0.00 0.00 0.00 0.00 0.00 0.00 0.00 0.00 0.00 0.01 0.02 0.05 0.08 0.08 0.06 0.06 0.04 0.02 0.01 0.01 0.01
0.07 0.13 0.10 0.04 0.01 0.01 0.01 0.00 0.01 0.01 0.01 0.00 0.00 0.00 0.00 0.00 0.00 0.00 0.00 0.00 0.00 0.00 0.00 0.00 0.00 0.00 0.00 0.00 0.00 0.00 0.00 0.00 0.01 0.05 0.08 0.09 0.07 0.06 0.04 0.02 0.01 0.01 0.01
0.08 0.17 0.10 0.05 0.02 0.01 0.01 0.00 0.01 0.01 0.01 0.01 0.00 0.00 0.00 0.00 0.00 0.00 0.00 0.00 0.00 0.00 0.00 0.00 0.00 0.00 0.00 0.00 0.00 0.00 0.00 0.00 0.02 0.05 0.08 0.11 0.07 0.07 0.05 0.02 0.01 0.02 0.02
0.10 0.16 0.11 0.05 0.02 0.01 0.01 0.00 0.01 0.01 0.01 0.01 0.00 0.00 0.00 0.00 0.00 0.00 0.01 0.01 0.01 0.00 0.00 0.00 0.00 0.00 0.00 0.00 0.00 0.00 0.01 0.01 0.02 0.06 0.09 0.10 0.07 0.07 0.06 0.03 0.02 0.02 0.02
0.11 0.11 0.11 0.09 0.05 0.03 0.02 0.01 0.01 0.01 0.02 0.01 0.00 0.00 0.01 0.01 0.01 0.01 0.00 0.01 0.01 0.01 0.01 0.01 0.00 0.00 0.01 0.01 0.01 0.01 0.02 0.01 0.03 0.05 0.07 0.07 0.07 0.08 0.08 0.06 0.04 0.03 0.03
0.17 0.18 0.17 0.18 0.12 0.08 0.05 0.05 0.04 0.03 0.03 0.03 0.02 0.02 0.01 0.01 0.02 0.02 0.01 0.01 0.02 0.01 0.01 0.01 0.01 0.01 0.01 0.01 0.01 0.02 0.03 0.03 0.04 0.04 0.05 0.07 0.08 0.08 0.08 0.07 0.06 0.05 0.04
0.26 0.39 0.32 0.24 0.20 0.16 0.12 0.09 0.07 0.04 0.03 0.02 0.03 0.03 0.02 0.02 0.02 0.03 0.02 0.03 0.02 0.02 0.03 0.03 0.05 0.04 0.04 0.05 0.05 0.04 0.03 0.04 0.04 0.04 0.05 0.06 0.06 0.07 0.07 0.06 0.06 0.07 0.07
0.18 0.29 0.42 0.40 0.33 0.29 0.26 0.18 0.12 0.09 0.07 0.06 0.06 0.06 0.05 0.04 0.05 0.07 0.06 0.06 0.05 0.06 0.08 0.08 0.08 0.08 0.05 0.06 0.08 0.07 0.04 0.04 0.04 0.05 0.06 0.07 0.07 0.06 0.05 0.06 0.07 0.07 0.08
0.25 0.31 0.40 0.44 0.43 0.37 0.36 0.35 0.28 0.21 0.17 0.14 0.13 0.13 0.12 0.13 0.13 0.13 0.14 0.13 0.11 0.12 0.14 0.18 0.12 0.10 0.08 0.07 0.06 0.05 0.05 0.04 0.05 0.05 0.05 0.06 0.07 0.05 0.04 0.05 0.06 0.07 0.07
0.23 0.27 0.28 0.39 0.41 0.41 0.49 0.52 0.42 0.39 0.36 0.29 0.25 0.22 0.23 0.25 0.25 0.25 0.22 0.19 0.15 0.15 0.17 0.20 0.18 0.12 0.09 0.09 0.09 0.06 0.05 0.05 0.05 0.05 0.06 0.08 0.09 0.08 0.08 0.07 0.07 0.08 0.07
0.16 0.21 0.27 0.35 0.40 0.36 0.41 0.50 0.49 0.52 0.53 0.43 0.43 0.37 0.34 0.33 0.32 0.31 0.30 0.26 0.23 0.19 0.17 0.16 0.13 0.11 0.09 0.08 0.11 0.10 0.09 0.09 0.08 0.08 0.08 0.09 0.10 0.10 0.10 0.08 0.09 0.08 0.07
0.17 0.20 0.22 0.30 0.42 0.49 0.40 0.43 0.48 0.55 0.66 0.66 0.65 0.62 0.50 0.44 0.40 0.35 0.30 0.26 0.26 0.24 0.19 0.16 0.14 0.11 0.09 0.08 0.09 0.11 0.10 0.10 0.10 0.10 0.10 0.10 0.09 0.10 0.10 0.10 0.11 0.10 0.08
0.28 0.27 0.29 0.29 0.33 0.39 0.41 0.43 0.54 0.56 0.59 0.63 0.67 0.74 0.63 0.47 0.43 0.40 0.39 0.34 0.30 0.29 0.24 0.20 0.17 0.14 0.10 0.10 0.11 0.10 0.09 0.09 0.12 0.11 0.11 0.11 0.09 0.08 0.09 0.10 0.09 0.08 0.06
0.30 0.27 0.27 0.25 0.22 0.25 0.29 0.36 0.44 0.46 0.48 0.49 0.49 0.54 0.60 0.48 0.43 0.46 0.47 0.40 0.34 0.31 0.28 0.24 0.20 0.16 0.12 0.11 0.09 0.09 0.08 0.09 0.09 0.08 0.10 0.12 0.11 0.10 0.09 0.09 0.08 0.08 0.06
0.17 0.16 0.15 0.18 0.17 0.18 0.23 0.30 0.33 0.36 0.36 0.42 0.39 0.35 0.39 0.39 0.34 0.35 0.40 0.39 0.36 0.33 0.28 0.24 0.22 0.18 0.17 0.15 0.12 0.10 0.09 0.07 0.07 0.06 0.07 0.08 0.08 0.09 0.09 0.07 0.05 0.04 0.03
0.08 0.08 0.10 0.13 0.13 0.15 0.19 0.23 0.26 0.30 0.34 0.36 0.36 0.31 0.30 0.36 0.32 0.29 0.31 0.35 0.32 0.28 0.26 0.23 0.23 0.21 0.22 0.22 0.22 0.16 0.11 0.08 0.07 0.07 0.06 0.05 0.05 0.05 0.04 0.03 0.02 0.02 0.01
0.06 0.07 0.07 0.09 0.12 0.14 0.16 0.17 0.21 0.26 0.28 0.31 0.30 0.29 0.29 0.29 0.26 0.21 0.22 0.24 0.26 0.25 0.24 0.23 0.22 0.21 0.18 0.17 0.17 0.17 0.15 0.13 0.10 0.08 0.06 0.05 0.05 0.04 0.03 0.02 0.01 0.01 0.01
0.06 0.05 0.06 0.06 0.08 0.09 0.13 0.14 0.16 0.19 0.21 0.21 0.21 0.22 0.27 0.27 0.23 0.17 0.17 0.18 0.20 0.19 0.17 0.21 0.23 0.22 0.17 0.14 0.13 0.12 0.12 0.12 0.11 0.09 0.06 0.06 0.05 0.04 0.02 0.02 0.01 0.01 0.01
MSLP
1010.90 1010.35 1010.03 1010.00 1010.26 1010.72 1011.26 1011.75 1012.11 1012.29 1012.33 1012.29 1012.28 1012.38 1012.61 1012.97 1013.42 1013.88 1014.28 1014.59 1014.79 1014.90 1014.97 1015.06 1015.18 1015.35 1015.56 1015.77 1015.95 1016.09 1016.18 1016.25 1016.33 1016.45 1016.62 1016.84 1017.08 1017.33 1017.54 1017.71 1017.82 1017.89 1017.96
1010.43 1010.03 1009.84 1009.93 1010.26 1010.76 1011.30 1011.78 1012.11 1012.29 1012.33 1012.33 1012.36 1012.51 1012.79 1013.18 1013.63 1014.07 1014.43 1014.69 1014.84 1014.93 1014.98 1015.06 1015.20 1015.39 1015.61 1015.83 1016.02 1016.16 1016.25 1016.33 1016.42 1016.55 1016.74 1016.97 1017.24 1017.49 1017.71 1017.87 1017.98 1018.06 1018.13
1009.85 1009.63 1009.60 1009.81 1010.24 1010.79 1011.35 1011.82 1012.15 1012.32 1012.38 1012.41 1012.49 1012.67 1012.97 1013.36 1013.78 1014.18 1014.48 1014.68 1014.79 1014.84 1014.89 1014.99 1015.15 1015.36 1015.62 1015.86 1016.06 1016.21 1016.31 1016.39 1016.48 1016.63 1016.83 1017.08 1017.35 1017.61 1017.84 1018.00 1018.12 1018.20 1018.29
1009.22 1009.17 1009.31 1009.66 1010.19 1010.80 1011.39 1011.88 1012.22 1012.40 1012.48 1012.55 1012.66 1012.86 1013.16 1013.53 1013.91 1014.24 1014.48 1014.61 1014.67 1014.71 1014.76 1014.89 1015.09 1015.35 1015.64 1015.91 1016.12 1016.27 1016.37 1016.45 1016.54 1016.69 1016.90 1017.15 1017.43 1017.69 1017.92 1018.09 1018.21 1018.31 1018.42
1008.58 1008.70 1009.00 1009.49 1010.12 1010.80 1011.43 1011.94 1012.28 1012.49 1012.61 1012.71 1012.85 1013.07 1013.38 1013.72 1014.04 1014.30 1014.47 1014.55 1014.57 1014.60 1014.68 1014.84 1015.09 1015.40 1015.73 1016.02 1016.24 1016.39 1016.47 1016.54 1016.62 1016.76 1016.96 1017.21 1017.48 1017.74 1017.96 1018.13 1018.26 1018.37 1018.50
1008.03 1008.29 1008.73 1009.34 1010.05 1010.78 1011.43 1011.96 1012.32 1012.55 1012.71 1012.85 1013.04 1013.29 1013.59 1013.91 1014.19 1014.39 1014.51 1014.54 1014.55 1014.59 1014.70 1014.91 1015.20 1015.55 1015.91 1016.21 1016.43 1016.56 1016.62 1016.66 1016.72 1016.84 1017.02 1017.25 1017.51 1017.75 1017.96 1018.13 1018.26 1018.38 1018.53
1007.64 1008.01 1008.55 1009.24 1010.00 1010.75 1011.42 1011.94 1012.31 1012.57 1012.76 1012.95 1013.19 1013.47 1013.79 1014.10 1014.36 1014.53 1014.60 1014.62 1014.62 1014.68 1014.82 1015.07 1015.41 1015.79 1016.16 1016.46 1016.66 1016.76 1016.79 1016.79 1016.82 1016.91 1017.07 1017.29 1017.53 1017.75 1017.95 1018.10 1018.23 1018.35 1018.51
1007.47 1007.91 1008.51 1009.24 1010.02 1010.76 1011.40 1011.90 1012.26 1012.53 1012.75 1012.99 1013.27 1013.60 1013.95 1014.27 1014.52 1014.67 1014.74 1014.75 1014.77 1014.84 1015.02 1015.30 1015.67 1016.06 1016.43 1016.71 1016.87 1016.94 1016.93 1016.90 1016.90 1016.96 1017.11 1017.30 1017.53 1017.74 1017.92 1018.06 1018.18 1018.30 1018.45
1007.55 1008.04 1008.68 1009.41 1010.16 1010.86 1011.43 1011.88 1012.21 1012.46 1012.70 1012.97 1013.29 1013.66 1014.04 1014.38 1014.64 1014.79 1014.86 1014.89 1014.92 1015.02 1015.22 1015.52 1015.89 1016.28 1016.63 1016.88 1017.01 1017.03 1016.99 1016.93 1016.91 1016.96 1017.09 1017.29 1017.51 1017.72 1017.89 1018.02 1018.12 1018.23 1018.37
1007.90 1008.42 1009.06 1009.76 1010.46 1011.07 1011.57 1011.93 1012.20 1012.42 1012.65 1012.93 1013.27 1013.67 1014.07 1014.42 1014.69 1014.86 1014.94 1014.98 1015.03 1015.15 1015.36 1015.67 1016.03 1016.40 1016.71 1016.92 1017.01 1017.00 1016.93 1016.85 1016.82 1016.88 1017.02 1017.22 1017.45 1017.67 1017.85 1017.99 1018.08 1018.17 1018.28
1008.48 1009.01 1009.63 1010.30 1010.92 1011.44 1011.83 1012.11 1012.30 1012.46 1012.65 1012.92 1013.26 1013.65 1014.05 1014.41 1014.68 1014.86 1014.95 1015.00 1015.07 1015.20 1015.41 1015.70 1016.04 1016.37 1016.64 1016.81 1016.87 1016.83 1016.75 1016.67 1016.65 1016.71 1016.87 1017.10 1017.36 1017.60 1017.80 1017.95 1018.04 1018.12 1018.21
1009.21 1009.75 1010.35 1010.96 1011.51 1011.94 1012.23 1012.42 1012.52 1012.62 1012.76 1012.99 1013.29 1013.66 1014.03 1014.37 1014.63 1014.80 1014.90 1014.96 1015.04 1015.16 1015.37 1015.64 1015.95 1016.24 1016.47 1016.61 1016.64 1016.59 1016.50 1016.42 1016.41 1016.50 1016.69 1016.94 1017.23 1017.50 1017.73 1017.90 1018.01 1018.09 1018.16
1010.01 1010.55 1011.13 1011.69 1012.17 1012.52 1012.73 1012.83 1012.87 1012.90 1012.99 1013.15 1013.40 1013.71 1014.03 1014.33 1014.56 1014.72 1014.82 1014.88 1014.96 1015.09 1015.28 1015.53 1015.81 1016.07 1016.26 1016.37 1016.38 1016.33 1016.24 1016.19 1016.19 1016.30 1016.50 1016.78 1017.09 1017.39 1017.65 1017.84 1017.98 1018.07 1018.14
1010.77 1011.29 1011.84 1012.36 1012.79 1013.08 1013.25 1013.30 1013.29 1013.28 1013.31 1013.41 1013.59 1013.82 1014.08 1014.32 1014.51 1014.64 1014.73 1014.80 1014.88 1015.01 1015.20 1015.43 1015.68 1015.92 1016.09 1016.19 1016.20 1016.15 1016.09 1016.05 1016.07 1016.19 1016.39 1016.67 1016.98 1017.30 1017.58 1017.80 1017.96 1018.07 1018.15
1011.41 1011.89 1012.40 1012.88 1013.27 1013.54 1013.69 1013.73 1013.72 1013.68 1013.67 1013.72 1013.83 1013.98 1014.16 1014.33 1014.47 1014.58 1014.65 1014.73 1014.83 1014.96 1015.15 1015.38 1015.63 1015.85 1016.02 1016.13 1016.16 1016.15 1016.11 1016.09 1016.13 1016.24 1016.43 1016.69 1016.99 1017.29 1017.57 1017.80 1017.99 1018.12 1018.22
1011.87 1012.29 1012.74 1013.17 1013.53 1013.81 1013.97 1014.05 1014.06 1014.04 1014.02 1014.03 1014.08 1014.15 1014.25 1014.35 1014.44 1014.51 1014.58 1014.67 1014.78 1014.94 1015.14 1015.38 1015.63 1015.87 1016.07 1016.21 1016.30 1016.34 1016.35 1016.37 1016.43 1016.54 1016.70 1016.92 1017.17 1017.44 1017.69 1017.91 1018.11 1018.25 1018.37
1012.16 1012.48 1012.85 1013.23 1013.57 1013.86 1014.07 1014.21 1014.27 1014.29 1014.29 1014.28 1014.28 1014.29 1014.31 1014.34 1014.38 1014.42 1014.48 1014.58 1014.71 1014.89 1015.11 1015.38 1015.66 1015.94 1016.19 1016.40 1016.57 1016.70 1016.80 1016.88 1016.97 1017.09 1017.23 1017.40 1017.59 1017.79 1017.99 1018.18 1018.36 1018.51 1018.63
1012.35 1012.55 1012.81 1013.12 1013.43 1013.74 1014.00 1014.20 1014.35 1014.43 1014.45 1014.44 1014.41 1014.36 1014.31 1014.27 1014.26 1014.27 1014.31 1014.41 1014.56 1014.76 1015.02 1015.31 1015.64 1015.97 1016.31 1016.62 1016.91 1017.16 1017.38 1017.56 1017.72 1017.86 1018.00 1018.12 1018.25 1018.38 1018.51 1018.65 1018.78 1018.91 1019.03
1012.54 1012.59 1012.73 1012.94 1013.21 1013.52 1013.82 1014.09 1014.31 1014.46 1014.52 1014.52 1014.46 1014.36 1014.25 1014.15 1014.07 1014.04 1014.07 1014.15 1014.31 1014.52 1014.79 1015.12 1015.49 1015.90 1016.33 1016.77 1017.20 1017.61 1017.98 1018.31 1018.57 1018.78 1018.93 1019.04 1019.12 1019.19 1019.25 1019.32 1019.40 1019.49 1019.58
1012.81 1012.72 1012.72 1012.83 1013.03 1013.31 1013.63 1013.95 1014.23 1014.43 1014.54 1014.54 1014.46 1014.32 1014.15 1013.98 1013.85 1013.77 1013.76 1013.82 1013.95 1014.16 1014.44 1014.79 1015.20 1015.67 1016.20 1016.77 1017.36 1017.95 1018.50 1018.99 1019.40 1019.71 1019.93 1020.06 1020.12 1020.14 1020.14 1020.15 1020.18 1020.22 1020.27
1013.26 1013.03 1012.90 1012.88 1012.99 1013.22 1013.53 1013.87 1014.18 1014.41 1014.55 1014.56 1014.46 1014.28 1014.06 1013.84 1013.64 1013.51 1013.45 1013.46 1013.56 1013.74 1014.00 1014.34 1014.77 1015.30 1015.91 1016.60 1017.34 1018.10 1018.83 1019.51 1020.08 1020.53 1020.84 1021.03 1021.12 1021.13 1021.11 1021.07 1021.05 1021.05 1021.06
1013.91 1013.57 1013.30 1013.16 1013.16 1013.31 1013.57 1013.89 1014.21 1014.46 1014.60 1014.62 1014.51 1014.31 1014.05 1013.78 1013.53 1013.34 1013.22 1013.18 1013.23 1013.36 1013.57 1013.88 1014.30 1014.84 1015.50 1016.27 1017.13 1018.03 1018.93 1019.77 1020.51 1021.11 1021.55 1021.83 1021.99 1022.03 1022.02 1021.98 1021.93 1021.90 1021.88
1014.74 1014.32 1013.94 1013.67 1013.55 1013.60 1013.78 1014.05 1014.34 1014.59 1014.74 1014.76 1014.65 1014.44 1014.16 1013.86 1013.58 1013.34 1013.17 1013.07 1013.06 1013.12 1013.27 1013.53 1013.90 1014.41 1015.07 1015.87 1016.78 1017.77 1018.79 1019.76 1020.64 1021.38 1021.95 1022.35 1022.60 1022.72 1022.76 1022.75 1022.72 1022.68 1022.64
1015.68 1015.21 1014.73 1014.35 1014.11 1014.04 1014.12 1014.32 1014.57 1014.80 1014.95 1014.98 1014.89 1014.69 1014.41 1014.11 1013.81 1013.55 1013.35 1013.20 1013.13 1013.12 1013.20 1013.38 1013.68 1014.13 1014.74 1015.50 1016.41 1017.41 1018.47 1019.51 1020.48 1021.32 1022.01 1022.53 1022.89 1023.12 1023.25 1023.30 1023.31 1023.30 1023.28
1016.64 1016.14 1015.59 1015.11 1014.75 1014.57 1014.56 1014.68 1014.87 1015.07 1015.21 1015.26 1015.20 1015.03 1014.79 1014.51 1014.23 1013.97 1013.75 1013.58 1013.46 1013.40 1013.42 1013.51 1013.73 1014.08 1014.60 1015.28 1016.11 1017.06 1018.08 1019.12 1020.12 1021.02 1021.78 1022.41 1022.88 1023.23 1023.46 1023.60 1023.69 1023.73 1023.73
1017.54 1017.03 1016.44 1015.87 1015.43 1015.14 1015.03 1015.07 1015.21 1015.38 1015.52 1015.58 1015.55 1015.44 1015.25 1015.01 1014.77 1014.53 1014.33 1014.16 1014.03 1013.94 1013.90 1013.93 1014.07 1014.32 1014.72 1015.28 1015.99 1016.83 1017.75 1018.72 1019.68 1020.58 1021.38 1022.07 1022.64 1023.09 1023.43 1023.68 1023.85 1023.95 1024.00
Thickness
5801 5801 5798 5796 5795 5794 5794 5793 5792 5791 5790 5789 5788 5787 5785 5784 5782 5780 5777 5775 5773 5771 5768 5765 5763 5761 5759 5758 5757 5755 5754 5751 5749 5747 5746 5744 5742 5740 5738 5736 5734 5732 5731
5808 5803 5798 5796 5793 5792 5791 5790 5789 5788 5788 5786 5785 5784 5783 5781 5779 5777 5775 5773 5771 5769 5766 5764 5762 5760 5758 5756 5755 5753 5751 5749 5747 5746 5744 5742 5740 5738 5736 5734 5732 5730 5729
5807 5802 5797 5795 5792 5790 5789 5788 5787 5786 5785 5784 5783 5782 5780 5778 5777 5775 5773 5771 5769 5767 5765 5762 5760 5758 5756 5755 5753 5751 5749 5747 5745 5744 5742 5740 5738 5736 5734 5732 5731 5729 5727
5807 5801 5796 5793 5791 5788 5786 5785 5784 5783 5782 5782 5780 5779 5778 5776 5774 5772 5771 5769 5767 5765 5762 5760 5758 5756 5754 5753 5751 5749 5747 5745 5744 5742 5740 5738 5737 5735 5733 5731 5729 5727 5726
5806 5801 5796 5792 5788 5786 5784 5782 5781 5780 5780 5779 5778 5776 5775 5773 5771 5770 5768 5766 5764 5762 5760 5758 5756 5754 5753 5751 5749 5747 5745 5743 5742 5741 5739 5737 5735 5733 5732 5730 5728 5726 5725
5803 5798 5794 5790 5785 5783 5781 5780 5778 5777 5776 5775 5774 5773 5772 5770 5769 5767 5765 5763 5761 5759 5758 5756 5753 5752 5751 5749 5747 5746 5744 5742 5741 5739 5738 5736 5734 5733 5731 5729 5727 5725 5724
5798 5795 5791 5787 5783 5780 5777 5776 5775 5774 5773 5772 5771 5770 5769 5767 5766 5764 5762 5760 5759 5757 5755 5753 5751 5750 5749 5747 5746 5744 5743 5741 5740 5738 5737 5735 5734 5733 5731 5729 5727 5725 5723
5797 5791 5787 5784 5780 5776 5774 5772 5770 5769 5768 5767 5767 5766 5765 5763 5762 5761 5759 5758 5756 5755 5752 5751 5749 5747 5746 5745 5744 5743 5742 5741 5740 5739 5737 5736 5734 5733 5731 5728 5726 5724 5722
5793 5788 5784 5780 5777 5773 5770 5768 5766 5765 5764 5763 5762 5761 5760 5759 5758 5757 5756 5755 5754 5752 5750 5748 5747 5745 5744 5743 5742 5741 5741 5740 5739 5739 5738 5736 5734 5733 5730 5728 5725 5723 5721
5786 5783 5780 5777 5773 5769 5766 5763 5762 5761 5760 5758 5758 5757 5756 5755 5754 5753 5752 5751 5750 5749 5747 5745 5744 5742 5742 5741 5740 5740 5739 5738 5738 5737 5737 5736 5734 5732 5730 5728 5725 5723 5721
5776 5776 5774 5773 5769 5766 5762 5760 5758 5757 5755 5754 5753 5753 5752 5751 5750 5749 5748 5748 5747 5745 5744 5742 5741 5740 5739 5738 5738 5738 5738 5737 5736 5736 5735 5735 5734 5732 5730 5727 5725 5723 5720
5768 5768 5768 5766 5764 5761 5759 5757 5754 5752 5751 5750 5749 5748 5747 5747 5746 5745 5745 5744 5743 5742 5741 5739 5738 5737 5736 5736 5736 5736 5736 5735 5734 5734 5734 5734 5733 5731 5729 5727 5724 5722 5720
5767 5765 5763 5761 5759 5757 5756 5753 5751 5749 5747 5746 5745 5744 5743 5742 5741 5741 5740 5740 5740 5739 5738 5737 5735 5734 5733 5733 5734 5734 5735 5734 5733 5733 5733 5733 5732 5730 5728 5726 5723 5721 5719
5762 5760 5759 5757 5755 5752 5752 5750 5748 5745 5743 5742 5741 5740 5738 5737 5737 5737 5737 5737 5736 5736 5735 5734 5733 5731 5730 5731 5731 5732 5732 5732 5732 5732 5732 5731 5730 5728 5726 5724 5722 5720 5719
5756 5756 5754 5753 5750 5748 5746 5745 5743 5742 5740 5739 5737 5736 5735 5734 5734 5734 5734 5733 5733 5732 5732 5731 5730 5729 5728 5728 5728 5729 5729 5730 5730 5729 5729 5728 5727 5725 5724 5722 5720 5718 5717
5749 5747 5747 5747 5745 5743 5741 5739 5738 5737 5736 5734 5733 5733 5732 5731 5731 5731 5730 5730 5730 5729 5729 5728 5727 5726 5725 5725 5725 5726 5726 5727 5727 5726 5725 5724 5722 5721 5720 5718 5717 5715 5714
5741 5740 5738 5739 5739 5738 5736 5734 5733 5732 5730 5728 5728 5728 5728 5728 5728 5728 5727 5727 5727 5727 5726 5725 5724 5723 5722 5722 5722 5722 5722 5722 5722 5721 5720 5719 5717 5716 5715 5714 5712 5711 5710
5731 5731 5731 5733 5731 5732 5731 5729 5727 5725 5724 5724 5724 5723 5723 5724 5724 5724 5724 5724 5723 5723 5722 5721 5720 5718 5718 5717 5716 5716 5716 5716 5716 5715 5714 5712 5711 5709 5708 5708 5706 5705 5704
5722 5721 5723 5723 5723 5723 5725 5724 5720 5719 5719 5718 5717 5716 5717 5719 5719 5720 5720 5720 5720 5720 5719 5718 5717 5716 5713 5712 5711 5709 5709 5708 5708 5707 5706 5705 5703 5702 5701 5699 5698 5697 5696
5712 5712 5713 5714 5715 5717 5717 5716 5713 5712 5711 5711 5711 5709 5710 5713 5713 5714 5716 5717 5717 5716 5715 5713 5712 5712 5710 5709 5706 5702 5700 5699 5698 5698 5697 5696 5695 5693 5692 5691 5690 5688 5687
5700 5702 5704 5706 5706 5708 5709 5707 5704 5703 5704 5704 5704 5704 5704 5705 5707 5707 5709 5711 5712 5711 5710 5710 5708 5706 5704 5704 5698 5691 5689 5688 5687 5687 5687 5686 5685 5683 5682 5682 5681 5679 5677
5687 5690 5693 5695 5696 5698 5700 5700 5699 5699 5697 5698 5698 5696 5697 5699 5700 5701 5703 5704 5705 5706 5704 5704 5704 5701 5700 5701 5696 5687 5680 5676 5676 5676 5676 5675 5674 5673 5672 5671 5670 5669 5667
5675 5679 5684 5685 5687 5689 5692 5693 5693 5691 5691 5690 5690 5690 5691 5693 5694 5696 5697 5698 5700 5700 5700 5701 5700 5699 5696 5695 5696 5690 5680 5673 5667 5664 5664 5664 5663 5662 5661 5660 5659 5658 5656
5664 5667 5671 5675 5678 5682 5685 5686 5686 5685 5684 5682 5683 5683 5684 5685 5686 5689 5690 5691 5693 5694 5695 5696 5696 5696 5694 5690 5689 5689 5686 5681 5668 5658 5653 5653 5652 5651 5650 5649 5647 5646 5645
5654 5656 5660 5665 5669 5672 5677 5678 5679 5679 5678 5677 5676 5675 5677 5678 5679 5680 5682 5684 5686 5687 5688 5689 5690 5690 5689 5686 5683 5681 5678 5674 5671 5661 5650 5644 5642 5640 5639 5637 5636 5635 5634
5643 5645 5649 5654 5658 5663 5667 5670 5670 5670 5669 5670 5669 5668 5669 5670 5670 5671 5672 5675 5678 5679 5681 5681 5682 5682 5681 5680 5677 5675 5672 5668 5664 5659 5649 5640 5634 5629 5628 5627 5626 5624 5623